EW6000 Weather Reports


time (UTC)temp
C
wind
direction
speed
KPH
gust
KPH
rain 1hr
cm
rain 24hr
cm
rain mn
cm
humidity
%
barometer
mb
20260507124959 4 263 3.2 12.9 0.00 0.00 0.00 78 1011.7
20260507123500 3 252 3.2 9.7 0.00 0.00 0.00 80 1011.7
20260507122959 3 247 3.2 9.7 0.00 0.00 0.00 80 1011.7
20260507122459 3 244 4.8 11.3 0.00 0.00 0.00 80 1011.7
20260507122000 3 253 4.8 12.9 0.00 0.00 0.00 80 1011.6
20260507120500 3 249 3.2 8.0 0.00 0.00 0.00 81 1011.5
20260507115959 3 246 3.2 9.7 0.00 0.00 0.00 81 1011.5
20260507115459 3 244 4.8 9.7 0.00 0.00 0.00 81 1011.5
20260507115000 3 250 4.8 11.3 0.00 0.00 0.00 80 1011.5
20260507114500 3 246 4.8 11.3 0.00 0.00 0.00 80 1011.6
20260507113959 3 242 4.8 11.3 0.00 0.00 0.00 80 1011.6
20260507113000 3 242 3.2 12.9 0.00 0.00 0.00 80 1011.6
20260507112459 3 240 4.8 12.9 0.00 0.00 0.00 80 1011.7
20260507112000 3 245 4.8 11.3 0.00 0.00 0.00 79 1011.7
20260507111000 3 263 4.8 12.9 0.00 0.00 0.00 79 1011.7
20260507110500 3 254 4.8 16.1 0.00 0.00 0.00 79 1011.7
20260507105959 3 246 4.8 16.1 0.00 0.00 0.00 79 1011.8
20260507105500 3 247 6.4 14.5 0.00 0.00 0.00 79 1011.8
20260507104500 3 233 8.0 19.3 0.00 0.00 0.00 78 1011.9
20260507104000 3 236 8.0 17.7 0.00 0.00 0.00 78 1012.1
20260507103501 3 239 8.0 17.7 0.00 0.00 0.00 78 1012.1
20260507103000 3 232 8.0 17.7 0.00 0.00 0.00 78 1012.1
20260507102459 3 227 6.4 16.1 0.00 0.00 0.00 78 1012.1
20260507101500 3 232 8.0 22.5 0.00 0.00 0.00 77 1012.3
20260507101000 4 238 9.7 22.5 0.00 0.00 0.00 77 1012.3
20260507100459 4 243 9.7 19.3 0.00 0.00 0.00 76 1012.4
20260507095959 4 249 9.7 17.7 0.00 0.00 0.00 76 1012.4
20260507095500 4 248 9.7 17.7 0.00 0.00 0.00 75 1012.5
20260507094500 4 249 6.4 17.7 0.00 0.00 0.00 75 1012.5
20260507093959 4 239 8.0 17.7 0.00 0.00 0.00 75 1012.7
20260507093500 4 233 9.7 20.9 0.00 0.00 0.00 74 1012.7
20260507093000 5 230 9.7 22.5 0.00 0.00 0.00 74 1012.7
20260507092500 5 223 9.7 22.5 0.00 0.00 0.00 74 1012.7
20260507092000 5 224 9.7 19.3 0.00 0.00 0.00 74 1012.8
20260507091459 5 229 8.0 17.7 0.00 0.00 0.00 74 1012.9
20260507091000 5 228 8.0 16.1 0.00 0.00 0.00 74 1012.9
20260507090500 5 222 6.4 16.1 0.00 0.00 0.00 74 1012.9
20260507085500 5 233 8.0 16.1 0.00 0.00 0.00 74 1013.2
20260507084500 5 233 6.4 17.7 0.00 0.00 0.00 75 1013.4
20260507083000 5 241 8.0 17.7 0.00 0.00 0.00 75 1013.5
20260507082459 5 233 8.0 17.7 0.00 0.00 0.00 75 1013.6
20260507082001 5 227 6.4 14.5 0.00 0.00 0.00 76 1013.7
20260507081500 5 235 6.4 17.7 0.00 0.00 0.00 76 1013.7
20260507080959 5 236 8.0 22.5 0.00 0.00 0.00 76 1013.7
20260507080500 5 233 8.0 22.5 0.00 0.00 0.00 76 1013.9
20260507075500 5 222 9.7 17.7 0.00 0.00 0.00 76 1014.0
20260507075000 5 225 8.0 17.7 0.00 0.00 0.00 76 1014.1
20260507074500 5 228 8.0 20.9 0.00 0.00 0.00 76 1014.1
20260507073959 5 225 9.7 20.9 0.00 0.00 0.00 76 1014.2
20260507073500 5 216 9.7 20.9 0.00 0.00 0.00 76 1014.4
20260507072959 5 216 9.7 20.9 0.00 0.00 0.00 76 1014.4
20260507072500 5 221 8.0 17.7 0.00 0.00 0.00 76 1014.4
20260507072000 5 221 8.0 17.7 0.00 0.00 0.00 76 1014.3
20260507071500 5 221 9.7 20.9 0.00 0.00 0.00 76 1014.4
20260507071000 5 219 11.3 20.9 0.00 0.00 0.00 76 1014.4
20260507065500 5 211 11.3 25.7 0.00 0.00 0.00 76 1014.4
20260507065000 5 213 11.3 20.9 0.00 0.00 0.00 76 1014.4
20260507064459 6 218 12.9 24.1 0.00 0.00 0.00 76 1014.5
20260507064000 6 215 14.5 25.7 0.00 0.00 0.00 75 1014.5
20260507063500 6 214 14.5 27.4 0.00 0.00 0.00 75 1014.6
20260507063000 6 214 12.9 27.4 0.00 0.00 0.00 75 1014.5
20260507062500 6 214 14.5 27.4 0.00 0.00 0.00 75 1014.6
20260507061500 6 211 14.5 29.0 0.00 0.00 0.00 75 1014.8
20260507061000 6 212 14.5 29.0 0.00 0.00 0.00 75 1014.7
20260507060500 6 214 16.1 27.4 0.00 0.00 0.00 75 1014.9
20260507060000 6 213 16.1 27.4 0.00 0.00 0.00 74 1014.9
20260507055500 6 210 12.9 27.4 0.00 0.00 0.00 74 1014.8
20260507055000 6 209 14.5 27.4 0.00 0.00 0.00 74 1014.9
20260507053500 6 212 14.5 27.4 0.00 0.00 0.00 72 1015.0
20260507053000 6 212 16.1 27.4 0.00 0.00 0.00 72 1015.1
20260507052500 6 210 16.1 29.0 0.00 0.00 0.00 72 1015.2
20260507052000 6 212 14.5 29.0 0.00 0.00 0.00 72 1015.2
20260507051500 6 216 12.9 30.6 0.00 0.00 0.00 71 1015.2
20260507050001 6 213 14.5 20.9 0.00 0.00 0.00 71 1015.4
20260507044500 6 209 12.9 25.7 0.00 0.00 0.00 70 1015.6
20260507043500 6 210 12.9 22.5 0.00 0.00 0.00 69 1015.9
20260507043000 7 215 12.9 22.5 0.00 0.00 0.00 69 1015.9
20260507042459 7 215 11.3 22.5 0.00 0.00 0.00 69 1015.9
20260507042000 7 212 12.9 24.1 0.00 0.00 0.00 68 1016.0
20260507041500 7 211 14.5 25.7 0.00 0.00 0.00 67 1016.1
20260507041000 7 211 12.9 25.7 0.00 0.00 0.00 67 1016.0
20260507040459 7 211 12.9 24.1 0.00 0.00 0.00 66 1016.1
20260507035005 7 215 12.9 24.1 0.00 0.00 0.00 63 1016.0
20260507034500 7 215 11.3 25.7 0.00 0.00 0.00 62 1016.0
20260507033500 7 211 12.9 22.5 0.00 0.00 0.00 60 1016.2
20260507033001 8 211 11.3 22.5 0.00 0.00 0.00 59 1016.3
20260507032000 8 211 9.7 17.7 0.00 0.00 0.00 58 1016.4
20260507031500 8 209 9.7 19.3 0.00 0.00 0.00 57 1016.3
20260507031000 8 211 9.7 19.3 0.00 0.00 0.00 56 1016.4
20260507030459 8 214 11.3 19.3 0.00 0.00 0.00 54 1016.4
20260507030000 8 215 11.3 19.3 0.00 0.00 0.00 53 1016.1
20260507025500 8 213 9.7 17.7 0.00 0.00 0.00 52 1016.2
20260507025000 8 213 8.0 17.7 0.00 0.00 0.00 50 1016.2
20260507024502 8 215 6.4 16.1 0.00 0.00 0.00 49 1016.3
20260507024000 8 216 6.4 16.1 0.00 0.00 0.00 48 1016.2
20260507023500 9 219 4.8 11.3 0.00 0.00 0.00 47 1016.1
20260507023000 9 217 6.4 11.3 0.00 0.00 0.00 46 1016.1
20260507022500 9 217 6.4 12.9 0.00 0.00 0.00 45 1016.1
20260507022000 10 217 8.0 12.9 0.00 0.00 0.00 44 1016.0
20260507021001 10 220 6.4 14.5 0.00 0.00 0.00 42 1016.0
20260507020500 10 220 4.8 12.9 0.00 0.00 0.00 42 1015.9
20260507020000 10 220 6.4 12.9 0.00 0.00 0.00 42 1016.0
20260507015500 11 223 6.4 12.9 0.00 0.00 0.00 41 1016.0
20260507015000 11 232 4.8 12.9 0.00 0.00 0.00 40 1016.0
20260507014500 11 229 6.4 14.5 0.00 0.00 0.00 39 1015.9
20260507013501 11 219 6.4 12.9 0.00 0.00 0.00 38 1015.9
20260507013000 12 233 6.4 12.9 0.00 0.00 0.00 37 1015.9
20260507012000 12 240 8.0 16.1 0.00 0.00 0.00 36 1016.0
20260507011500 12 243 8.0 20.9 0.00 0.00 0.00 35 1015.9
20260507011001 12 249 6.4 20.9 0.00 0.00 0.00 35 1016.0
20260507010500 12 248 4.8 14.5 0.00 0.00 0.00 34 1016.0
20260507010000 12 238 4.8 16.1 0.00 0.00 0.00 34 1016.0
20260507005503 12 249 6.4 16.1 0.00 0.00 0.00 35 1016.0
20260507005001 12 257 6.4 12.9 0.00 0.00 0.00 35 1016.0
20260507004502 12 257 4.8 14.5 0.00 0.00 0.00 34 1016.1
20260507004000 12 269 8.0 20.9 0.00 0.00 0.00 33 1016.1
20260507003500 12 271 8.0 20.9 0.00 0.00 0.00 33 1016.1
20260507003000 13 271 8.0 20.9 0.00 0.00 0.00 32 1016.2
20260507002500 13 251 9.7 22.5 0.00 0.00 0.00 32 1016.2
20260507002000 13 228 8.0 22.5 0.00 0.00 0.00 32 1016.2
20260507001500 12 244 6.4 16.1 0.00 0.00 0.00 33 1016.2
20260507001001 12 286 4.8 12.9 0.00 0.00 0.00 34 1016.3
20260507000000 12 285 6.4 16.1 0.00 0.03 0.00 34 1016.3
20260506235500 12 268 8.0 17.7 0.00 0.03 0.00 34 1016.3
20260506235000 12 258 8.0 17.7 0.00 0.03 0.00 33 1016.3
20260506234500 13 262 9.7 22.5 0.00 0.03 0.00 33 1016.6
20260506234000 13 270 8.0 22.5 0.00 0.03 0.00 32 1016.6
20260506233501 13 249 6.4 20.9 0.00 0.03 0.00 32 1016.7
20260506233000 13 238 8.0 17.7 0.00 0.05 0.00 34 1016.6
20260506232500 13 255 9.7 27.4 0.00 0.05 0.00 33 1016.7
20260506232001 13 253 9.7 27.4 0.00 0.05 0.00 34 1016.7
20260506231500 13 243 9.7 27.4 0.00 0.05 0.00 33 1016.8
20260506231002 13 242 11.3 22.5 0.00 0.05 0.00 32 1016.7
20260506230501 13 261 8.0 22.5 0.00 0.05 0.00 33 1016.7
20260506225001 12 272 9.7 20.9 0.00 0.08 0.00 31 1016.6
20260506224500 13 297 8.0 20.9 0.00 0.08 0.00 30 1016.6
20260506223500 12 267 6.4 14.5 0.00 0.08 0.00 31 1016.7
20260506223000 12 260 8.0 22.5 0.00 0.08 0.00 30 1016.7
20260506222500 12 264 11.3 22.5 0.00 0.08 0.00 29 1016.8
20260506222001 13 251 12.9 25.7 0.00 0.08 0.00 28 1016.9
20260506221500 13 260 9.7 25.7 0.00 0.08 0.00 28 1016.9
20260506221001 13 284 6.4 20.9 0.00 0.08 0.00 28 1016.9
20260506220501 13 257 6.4 16.1 0.00 0.08 0.00 29 1016.9
20260506220000 13 232 9.7 25.7 0.00 0.08 0.00 29 1017.0
20260506215500 12 235 9.7 25.7 0.00 0.08 0.00 31 1017.1
20260506215001 12 259 8.0 16.1 0.00 0.08 0.00 33 1017.3
20260506214500 12 283 6.4 14.5 0.00 0.08 0.00 34 1017.4
20260506214002 12 242 4.8 14.5 0.00 0.08 0.00 35 1017.5
20260506213500 12 223 6.4 14.5 0.00 0.08 0.00 35 1017.5
20260506213000 12 210 9.7 20.9 0.00 0.08 0.00 35 1017.6
20260506212501 12 207 11.3 20.9 0.00 0.08 0.00 34 1017.6
20260506212000 12 217 11.3 20.9 0.00 0.08 0.00 34 1017.6
20260506211500 13 225 9.7 20.9 0.00 0.08 0.00 33 1017.7
20260506211001 13 237 9.7 29.0 0.00 0.08 0.00 33 1017.8
20260506210001 13 239 11.3 20.9 0.00 0.08 0.00 33 1017.9
20260506205501 13 240 9.7 20.9 0.00 0.08 0.00 32 1018.0
20260506205001 12 248 6.4 20.9 0.00 0.08 0.00 35 1018.1
20260506204000 12 221 6.4 17.7 0.00 0.08 0.00 34 1018.3
20260506203500 13 254 6.4 14.5 0.00 0.08 0.00 34 1018.4
20260506203000 12 299 8.0 25.7 0.00 0.08 0.00 35 1018.5
20260506202501 12 274 8.0 25.7 0.00 0.08 0.00 35 1018.5
20260506202000 12 229 8.0 20.9 0.00 0.08 0.00 35 1018.6
20260506201500 12 215 9.7 24.1 0.00 0.08 0.00 33 1018.5
20260506201001 12 223 9.7 24.1 0.00 0.08 0.00 34 1018.6
20260506200500 12 267 6.4 17.7 0.00 0.08 0.00 33 1018.7
20260506200001 12 250 4.8 14.5 0.00 0.08 0.00 34 1018.6
20260506195500 12 252 6.4 19.3 0.00 0.08 0.00 35 1018.7
20260506195001 12 270 8.0 19.3 0.00 0.08 0.00 34 1018.7
20260506194000 12 249 4.8 20.9 0.00 0.08 0.00 31 1018.6
20260506193000 11 298 4.8 11.3 0.00 0.08 0.00 36 1018.8
20260506192500 11 242 8.0 20.9 0.00 0.08 0.00 35 1018.9
20260506191500 12 220 6.4 19.3 0.00 0.08 0.00 35 1018.9
20260506190500 12 199 4.8 12.9 0.00 0.08 0.00 34 1018.9
20260506190000 12 260 4.8 12.9 0.00 0.08 0.00 34 1019.1
20260506185006 11 287 6.4 20.9 0.00 0.08 0.00 35 1019.2
20260506184501 11 292 6.4 14.5 0.00 0.08 0.00 35 1019.3
20260506184001 11 273 6.4 14.5 0.00 0.08 0.00 34 1019.3
20260506183500 12 277 4.8 12.9 0.00 0.08 0.00 37 1019.4
20260506183000 11 233 4.8 14.5 0.00 0.08 0.00 38 1019.4
20260506182500 11 237 6.4 14.5 0.00 0.08 0.00 38 1019.5
20260506182001 10 265 6.4 20.9 0.00 0.08 0.00 38 1019.6
20260506180001 11 334 4.8 11.3 0.00 0.08 0.00 38 1020.0
20260506175501 11 224 4.8 11.3 0.00 0.08 0.00 40 1020.1
20260506175001 10 224 4.8 12.9 0.00 0.10 0.00 39 1020.0
20260506174501 10 254 4.8 12.9 0.00 0.10 0.00 38 1020.1
20260506173500 10 211 8.0 16.1 0.00 0.10 0.00 41 1020.0
20260506173001 10 228 6.4 11.3 0.00 0.10 0.00 42 1020.1
20260506172501 10 270 4.8 9.7 0.00 0.10 0.00 39 1020.0
20260506171501 10 344 4.8 12.9 0.00 0.10 0.00 41 1020.0
20260506171001 10 355 4.8 12.9 0.00 0.10 0.00 42 1020.0
20260506170500 10 317 3.2 12.9 0.00 0.13 0.00 40 1020.0
20260506170000 10 184 1.6 8.0 0.00 0.13 0.00 40 1020.0
20260506165500 10 355 3.2 11.3 0.00 0.13 0.00 41 1020.1
20260506165001 10 349 4.8 11.3 0.00 0.13 0.00 41 1020.1
20260506164501 10 344 3.2 9.7 0.00 0.13 0.00 42 1020.1
20260506164000 9 349 6.4 12.9 0.00 0.13 0.00 43 1020.1
20260506163501 8 345 8.0 14.5 0.00 0.13 0.00 42 1020.1
20260506163001 8 342 4.8 14.5 0.00 0.15 0.00 43 1020.1
20260506162501 8 16 3.2 9.7 0.00 0.15 0.00 45 1020.2
20260506162002 8 3 4.8 9.7 0.00 0.15 0.00 44 1020.1
20260506161501 8 358 3.2 9.7 0.00 0.15 0.00 44 1020.1
20260506160001 9 329 4.8 14.5 0.00 0.18 0.00 45 1020.0
20260506155501 9 335 4.8 14.5 0.00 0.18 0.00 45 1019.9
20260506155000 8 349 3.2 11.3 0.00 0.18 0.00 46 1019.9
20260506154501 8 356 3.2 11.3 0.00 0.18 0.00 45 1019.9
20260506154001 9 25 1.6 6.4 0.00 0.20 0.00 46 1019.8
20260506153502 8 13 3.2 9.7 0.00 0.20 0.00 44 1019.8
20260506153001 8 3 3.2 9.7 0.00 0.20 0.00 47 1019.9
20260506152501 8 15 1.6 8.0 0.00 0.20 0.00 47 1019.9
20260506152001 8 45 1.6 6.4 0.00 0.20 0.00 48 1020.0
20260506151501 8 123 1.6 9.7 0.00 0.20 0.00 48 1019.9
20260506151001 8 81 1.6 9.7 0.00 0.20 0.00 47 1019.9
20260506150501 7 342 3.2 9.7 0.00 0.20 0.00 48 1020.0
20260506145501 7 344 4.8 11.3 0.00 0.20 0.00 47 1019.9
20260506144501 7 8 3.2 9.7 0.00 0.23 0.00 47 1020.0
20260506144001 7 355 1.6 6.4 0.00 0.23 0.00 52 1020.0
20260506143501 7 146 1.6 4.8 0.00 0.23 0.00 54 1020.0
20260506143000 7 169 1.6 4.8 0.00 0.23 0.00 57 1020.0
20260506142001 6 156 0.0 4.8 0.00 0.25 0.00 61 1020.0
20260506141501 6 146 1.6 4.8 0.00 0.25 0.00 64 1020.0
20260506140000 5 152 1.6 4.8 0.00 0.25 0.00 62 1019.9
20260506135501 5 137 1.6 4.8 0.00 0.25 0.00 65 1019.8
20260506135001 5 131 1.6 4.8 0.00 0.28 0.00 67 1019.8
20260506134501 5 128 1.6 4.8 0.00 0.28 0.00 68 1019.9
20260506134002 5 123 0.0 4.8 0.00 0.28 0.00 67 1019.7
20260506133501 5 28 0.0 3.2 0.00 0.28 0.00 69 1019.6
20260506133002 5 28 0.0 3.2 0.00 0.30 0.00 69 1019.4
20260506132502 5 329 0.0 1.6 0.00 0.30 0.00 70 1019.6
20260506132001 4 328 0.0 1.6 0.00 0.30 0.00 70 1019.5
20260506130501 4 328 0.0 1.6 0.00 0.33 0.00 73 1019.5
20260506130001 4 328 0.0 1.6 0.00 0.33 0.00 73 1019.4
20260506125502 3 328 0.0 1.6 0.00 0.33 0.00 75 1019.3